Wiscasset, ME

5:17 AM EDT on June 27, 2017 (GMT -0400)
Wiscasset

Weather History for KIWI - January, 2014

Change the Weather History Date:

Monday, January 13, 2014

  Actual Average Record
Temperature  
Mean Temperature 42 °F -  
Max Temperature 55 °F 26 °F 55 °F (2014)
Min Temperature 30 °F 8 °F -7 °F (2015)
Degree Days  
Heating Degree Days 22    
Moisture  
Dew Point 29 °F    
Average Humidity 68    
Maximum Humidity 85    
Minimum Humidity 33    
Precipitation  
Precipitation 0.00 in - - ()
Sea Level Pressure  
Sea Level Pressure 30.00 in    
Wind  
Wind Speed 3 mph (SSW)    
Max Wind Speed 12 mph    
Max Gust Speed 18 mph    
Visibility 10 miles    
Events      
Averages and records for this station are not official NWS values.
T = Trace of Precipitation, MM = Missing Value Source: NWS Daily Summary

Daily Weather History Graph

Daily Weather History Graph

Search for Another Location

Airport or City:

Trip Planner

Search our weather history database for the weather conditions in past years. The results will help you decide how hot, cold, wet, or windy it might be!

Date:

Astronomy

Jan. 13, 2014 Rise Set
Actual Time 7:11 AM EST 4:24 PM EST
Civil Twilight 6:38 AM EST 4:56 PM EST
Nautical Twilight 6:03 AM EST 5:32 PM EST
Astronomical Twilight 5:28 AM EST 6:06 PM EST
Moon 2:37 PM EST (1/13) 4:56 AM EST (1/13)
Length of Visible Light 10h 17m
Length of Day
9h 13m
Waxing Gibbous, 95% of the Moon is Illuminated
Jan 13
Waxing Gibbous
Jan 15
Full
Jan 24
Last Quarter
Jan 30
New
Feb 6
First Quarter

Hourly Weather History & Observations

Time (EST) Temp. Windchill Dew Point Humidity Pressure Visibility Wind Dir Wind Speed Gust Speed Precip Events Conditions
12:53 AM 37.0 °F - 23.0 °F 57% 29.89 in 10.0 mi Calm Calm - N/A   Clear
1:53 AM 32.0 °F - 23.0 °F 69% 29.94 in 10.0 mi Calm Calm - N/A   Clear
2:53 AM 30.0 °F - 24.1 °F 79% 29.98 in 10.0 mi Calm Calm - N/A   Clear
3:53 AM 30.0 °F - 23.0 °F 75% 29.99 in 10.0 mi Calm Calm - N/A   Clear
4:53 AM 30.0 °F - 23.0 °F 75% 30.02 in 10.0 mi Calm Calm - N/A   Clear
5:53 AM 30.9 °F - 24.1 °F 76% 30.04 in 10.0 mi Calm Calm - N/A   Clear
6:53 AM 32.0 °F - 25.0 °F 75% 30.05 in 10.0 mi Calm Calm - N/A   Clear
7:53 AM 33.1 °F - 26.1 °F 75% 30.08 in 8.0 mi Calm Calm - N/A   Clear
8:53 AM 46.0 °F 44.8 °F 27.0 °F 47% 30.09 in 10.0 mi South 3.5 mph - N/A   Clear
9:53 AM 55.9 °F - 27.0 °F 33% 30.08 in 10.0 mi SSW 6.9 mph - N/A   Clear
10:53 AM 41.0 °F - 27.0 °F 57% 30.08 in 10.0 mi North - - N/A   Clear
11:53 AM 41.0 °F 34.3 °F 26.1 °F 55% 30.05 in 10.0 mi SSW 11.5 mph 18.4 mph N/A   Clear
12:53 PM 42.1 °F 37.1 °F 26.1 °F 53% 30.03 in 10.0 mi South 8.1 mph - N/A   Clear
1:53 PM 42.1 °F 38.4 °F 27.0 °F 55% 30.02 in 10.0 mi South 5.8 mph - N/A   Clear
2:53 PM 39.9 °F 35.8 °F 30.9 °F 70% 30.01 in 10.0 mi South 5.8 mph - N/A   Clear
3:53 PM 39.9 °F 35.8 °F 30.9 °F 70% 30.00 in 10.0 mi Variable 5.8 mph - N/A   Clear
4:53 PM 39.0 °F - 33.1 °F 79% 30.00 in 10.0 mi Calm Calm - N/A   Clear
5:53 PM 41.0 °F 37.1 °F 33.1 °F 73% 30.00 in 10.0 mi South 5.8 mph - N/A   Clear
6:53 PM 41.0 °F 37.1 °F 34.0 °F 76% 30.00 in 10.0 mi SW 5.8 mph - N/A   Clear
7:53 PM 43.0 °F 40.3 °F 33.1 °F 68% 29.98 in 10.0 mi SSW 4.6 mph - N/A   Clear
8:53 PM 43.0 °F 38.2 °F 34.0 °F 71% 29.95 in 10.0 mi South 8.1 mph - N/A   Clear
9:53 PM 43.0 °F 38.2 °F 37.0 °F 80% 29.94 in 10.0 mi SSW 8.1 mph - N/A   Clear
10:53 PM 43.0 °F 39.5 °F 37.9 °F 82% 29.93 in 10.0 mi SSW 5.8 mph - N/A   Clear
11:53 PM 44.1 °F 40.1 °F 39.9 °F 85% 29.90 in 10.0 mi South 6.9 mph - N/A   Clear